Location: Castiglione Fibocchi
(43.5333°N, 11.7667°E)
Time: 17:50:50
(UTC+00:00)

Cosmos 1703 - Pass Details

Date: 15 August 2020
Orbit: 523 x 540 km, 82.5° (Epoch: 19 September)

Event Time Altitude Azimuth Distance (km) Brightness Sun altitude
Rises 02:46:32 0° 339° (NNW) 2,705 7.1 -15.4°
Reaches altitude 10° 02:48:56 10° 327° (NNW) 1,806 6.0 -15.0°
Maximum altitude 02:52:15 26° 270° (W) 1,090 4.4 -14.5°
Enters shadow 02:52:57 24° 252° (WSW) 1,131 4.3 -14.4°
